Location: Bergnershof
(48.9468°N, 10.9431°E)
Time: 04:41:30
(UTC+00:00)

Cosmos 1933 Rocket - Pass Details

Date: 03 March 2021
Orbit: 607 x 629 km, 82.5° (Epoch: 11 April)

Event Time Altitude Azimuth Distance (km) Brightness Sun altitude
Rises 18:56:54 0° 201° (SSW) 2,862 7.1 -19.4°
Reaches altitude 10° 18:59:09 10° 206° (SSW) 1,965 6.3 -19.8°
Maximum altitude 19:03:23 52° 283° (WNW) 766 4.3 -20.4°
Drops below altitude 10° 19:07:43 10° 1° (N) 1,994 6.3 -21.1°
Sets 19:10:01 0° 6° (N) 2,908 7.1 -21.5°
